Chicago Area Weather Blog Forums

Weather Forums


    Weather History - 04/14/06

    Share

    Thundercloud
    Thunderstorm
    Thunderstorm

    Posts : 24
    Join date : 2008-04-14
    Age : 27
    Location : Rochester, NY

    Weather History - 04/14/06

    Post  Thundercloud on Mon Apr 14, 2008 7:38 am

    In this post I will pick a year and will use todays date and will post what happened in different major citys on that day

    NEW YORK

    TimeEDT,TemperatureF,Dew PointF,Humidity,Sea Level PressureIn,VisibilityMPH,Wind Direction,Wind SpeedMPH,Gust SpeedMPH,PrecipitationIn,Events,Conditions
    12:51 AM,60.1,42.1,51,29.98,10.0,Calm,Calm,-,N/A,,Clear
    1:51 AM,59.0,42.1,53,29.98,10.0,Variable,3.5,-,N/A,,Clear
    2:51 AM,57.0,41.0,55,29.95,10.0,SSW,3.5,-,N/A,,Clear
    3:51 AM,57.0,41.0,55,29.92,10.0,Calm,Calm,-,N/A,,Clear
    4:51 AM,55.9,43.0,62,29.92,10.0,Calm,Calm,-,N/A,,Clear
    5:51 AM,59.0,42.1,53,29.90,10.0,Variable,3.5,-,N/A,,Clear
    6:51 AM,59.0,42.1,53,29.92,10.0,WSW,3.5,-,N/A,,Clear
    7:51 AM,61.0,43.0,52,29.91,10.0,Calm,Calm,-,N/A,,Clear
    8:51 AM,64.9,42.1,43,29.90,10.0,Variable,5.8,-,N/A,,Scattered Clouds
    9:51 AM,64.9,43.0,45,29.89,10.0,Variable,4.6,-,N/A,,Scattered Clouds
    10:51 AM,66.0,43.0,43,29.86,10.0,SE,4.6,-,N/A,,Scattered Clouds
    11:03 AM,60.8,48.2,63,29.90,1.8,Variable,6.9,-,0.02,Rain,Heavy Rain
    11:11 AM,59.0,50.0,72,29.90,3.0,West,3.5,-,0.04,Rain,Light Rain
    11:51 AM,64.0,48.9,58,29.84,10.0,Calm,Calm,-,0.04,,Mostly Cloudy
    12:51 PM,63.0,48.9,60,29.83,10.0,Variable,3.5,-,0.00,,Mostly Cloudy
    1:51 PM,62.1,52.0,70,29.81,10.0,Calm,Calm,-,0.01,,Mostly Cloudy
    2:51 PM,62.1,52.0,70,29.79,8.0,Calm,Calm,-,N/A,,Overcast
    3:51 PM,62.1,53.1,72,29.74,6.0,Variable,5.8,-,0.00,Rain,Light Rain
    4:51 PM,57.9,55.0,90,29.74,3.0,SSE,3.5,-,0.04,Rain,Light Rain
    4:54 PM,57.2,55.4,94,29.76,2.5,SSE,3.5,-,0.01,Rain,Light Rain
    5:03 PM,57.2,55.4,94,29.76,3.0,SE,4.6,-,0.01,Rain,Light Rain
    5:51 PM,57.0,54.0,89,29.70,2.5,ESE,9.2,-,0.04,Rain,Light Rain
    6:02 PM,57.2,53.6,88,29.71,3.0,SE,10.4,-,0.00,Rain,Light Rain
    6:44 PM,55.4,53.6,94,29.72,1.8,SSE,6.9,-,0.04,Rain,Rain
    6:51 PM,55.9,53.1,90,29.70,2.0,Variable,3.5,-,0.05,Rain,Light Rain
    7:05 PM,55.4,53.6,94,29.73,4.0,Variable,4.6,-,0.00,Rain,Light Rain
    7:15 PM,55.4,51.8,88,29.73,1.8,SSE,5.8,-,0.01,Rain,Rain
    7:25 PM,53.6,51.8,94,29.73,3.0,SE,8.1,-,0.03,Rain,Light Rain
    7:51 PM,55.0,53.1,93,29.70,4.0,Calm,Calm,-,0.03,,Overcast
    8:51 PM,55.0,53.1,93,29.68,3.0,East,4.6,-,N/A,,Overcast
    9:41 PM,55.4,53.6,94,29.68,3.0,Variable,5.8,-,N/A,,Overcast
    9:51 PM,55.0,53.1,93,29.66,3.0,East,6.9,-,N/A,,Overcast
    10:27 PM,53.6,53.6,100,29.69,2.5,East,5.8,-,N/A,,Overcast
    10:51 PM,54.0,52.0,93,29.65,2.5,NE,5.8,-,N/A,,Overcast
    11:51 PM,54.0,52.0,93,29.63,2.5,Calm,Calm,-,N/A,,Overcast


    CHICAGO

    TimeCDT,TemperatureF,Dew PointF,Humidity,Sea Level PressureIn,VisibilityMPH,Wind Direction,Wind SpeedMPH,Gust SpeedMPH,PrecipitationIn,Events,Conditions
    12:53 AM,64.9,55.0,70,29.67,10.0,SSW,10.4,-,N/A,,Overcast
    1:53 AM,66.0,55.0,68,29.65,10.0,SSW,10.4,-,N/A,,Overcast
    2:53 AM,64.9,55.0,70,29.64,10.0,SW,5.8,-,N/A,,Overcast
    3:53 AM,66.9,55.0,66,29.62,10.0,SW,13.8,-,N/A,,Mostly Cloudy
    4:53 AM,66.0,57.9,75,29.63,10.0,WSW,10.4,-,N/A,,Partly Cloudy
    5:53 AM,66.9,59.0,76,29.65,10.0,WSW,13.8,-,N/A,,Mostly Cloudy
    6:53 AM,64.9,59.0,81,29.67,10.0,WSW,12.7,-,N/A,,Partly Cloudy
    7:53 AM,68.0,59.0,73,29.68,10.0,West,11.5,-,N/A,,Scattered Clouds
    8:53 AM,72.0,59.0,64,29.67,10.0,West,6.9,-,N/A,,Mostly Cloudy
    9:53 AM,75.9,60.1,58,29.66,10.0,WSW,10.4,-,N/A,,Mostly Cloudy
    10:53 AM,73.9,60.1,62,29.66,10.0,WSW,4.6,-,N/A,,Mostly Cloudy
    11:53 AM,77.0,61.0,58,29.65,10.0,SW,6.9,-,N/A,,Mostly Cloudy
    12:53 PM,75.0,61.0,62,29.62,10.0,SSW,13.8,-,0.00,,Mostly Cloudy
    1:53 PM,75.9,59.0,56,29.63,10.0,ESE,4.6,-,N/A,,Mostly Cloudy
    2:53 PM,75.0,62.1,64,29.60,10.0,SW,12.7,-,0.00,Rain,Light Rain
    3:53 PM,77.0,61.0,58,29.53,10.0,SSW,16.1,23.0,0.00,,Mostly Cloudy
    4:53 PM,78.1,60.1,54,29.55,10.0,WSW,13.8,-,N/A,,Scattered Clouds
    5:53 PM,78.1,59.0,52,29.55,10.0,SW,9.2,-,N/A,,Scattered Clouds
    6:53 PM,75.9,61.0,60,29.54,10.0,WSW,9.2,-,N/A,,Scattered Clouds
    7:53 PM,73.0,61.0,66,29.55,10.0,WSW,8.1,-,N/A,,Scattered Clouds
    8:53 PM,71.1,63.0,75,29.54,10.0,West,5.8,-,N/A,,Partly Cloudy
    9:53 PM,68.0,61.0,78,29.55,10.0,West,5.8,-,N/A,,Clear
    10:53 PM,69.1,60.1,73,29.58,10.0,NNW,6.9,-,N/A,,Partly Cloudy
    11:53 PM,69.8,44.6,40,29.62,10.0,North,9.2,-,N/A,,Clear


    Kansas City, MO
    TimeCDT,TemperatureF,Dew PointF,Humidity,Sea Level PressureIn,VisibilityMPH,Wind Direction,Wind SpeedMPH,Gust SpeedMPH,PrecipitationIn,Events,Conditions
    12:54 AM,79.0,57.9,48,29.75,10.0,SW,13.8,21.9,N/A,,Clear
    1:54 AM,78.1,57.9,50,29.74,10.0,SW,16.1,-,N/A,,Clear
    2:54 AM,77.0,57.9,52,29.72,10.0,SW,15.0,-,N/A,,Clear
    3:54 AM,75.0,59.0,57,29.70,10.0,SW,17.3,28.8,N/A,,Clear
    4:54 AM,73.9,59.0,59,29.69,10.0,SW,18.4,23.0,N/A,,Clear
    5:54 AM,73.0,59.0,61,29.67,10.0,SSW,18.4,25.3,N/A,,Clear
    6:54 AM,72.0,59.0,64,29.67,10.0,SSW,19.6,25.3,N/A,,Clear
    7:54 AM,73.4,57.2,57,29.71,10.0,SW,16.1,25.3,N/A,,Clear
    8:54 AM,73.9,57.9,57,29.67,10.0,SW,20.7,28.8,N/A,,Clear
    9:54 AM,78.1,59.0,52,29.66,10.0,SW,16.1,25.3,N/A,,Clear
    10:54 AM,82.9,57.9,42,29.64,10.0,SW,19.6,23.0,N/A,,Clear
    11:54 AM,82.9,57.0,41,29.64,10.0,WSW,17.3,-,N/A,,Clear
    12:54 PM,86.0,59.0,40,29.63,10.0,SW,13.8,-,N/A,,Clear
    1:54 PM,86.0,55.0,35,29.60,10.0,WSW,16.1,23.0,N/A,,Clear
    2:54 PM,88.0,55.0,32,29.60,10.0,West,16.1,21.9,N/A,,Clear
    3:54 PM,88.0,55.0,32,29.59,10.0,West,13.8,19.6,N/A,,Clear
    4:04 PM,87.8,53.6,31,29.63,10.0,West,10.4,-,N/A,,Clear
    4:54 PM,88.0,55.0,32,29.57,10.0,West,9.2,-,N/A,,Clear
    5:54 PM,88.0,53.1,30,29.57,10.0,WNW,8.1,-,N/A,,Clear
    6:54 PM,86.0,53.1,32,29.59,10.0,WSW,6.9,-,N/A,,Clear
    7:54 PM,84.0,52.0,33,29.60,10.0,SW,4.6,-,N/A,,Clear
    8:54 PM,81.0,53.1,38,29.60,10.0,SSW,4.6,-,N/A,,Clear
    9:54 PM,78.1,54.0,43,29.60,10.0,SSW,3.5,-,N/A,,Clear
    10:54 PM,75.0,55.9,51,29.62,10.0,Calm,Calm,-,N/A,,Clear
    11:54 PM,75.0,55.0,50,29.62,10.0,Calm,Calm,-,N/A,,Clear


    let me know which other major citys I should do

      Current date/time is Sun Sep 23, 2018 7:42 pm